Home   Weather   Askim   Past weeks

Flag for Norway Past Weather in Askim, Norway — Yesterday and Last 2 Weeks

Now
63 °F

Partly sunny.


Feels Like: 63 °F
Forecast: 51 / 59 °F
Wind: 13 mph from South

Location: Rygge

Current Time: Sep 25, 2016 at 2:27:29 PM

Latest Report: Sep 25, 2016 at 1:50 PM


Visibility: N/A

Pressure: 30.09 "Hg

Humidity: 83%

Dew Point: 57 °F

Location of AskimLocation

Past Weather in Askim — Graph

°F

Askim Temperature Yesterday

Maximum temperature yesterday: 61 °F (at 3:20 PM)
Minimum temperature yesterday: 39 °F (at 5:50 AM)
Average temperature yesterday: 55 °F

High & Low Weather Summary for the Past Weeks

 TemperatureHumidityPressure
High75 °F (Sep 15, 3:50 PM)100% (Sep 11, 8:50 AM)30.27 "Hg (Sep 11, 8:50 AM)
Low39 °F (Sep 24, 5:50 AM)43% (Sep 11, 4:50 PM)29.71 "Hg (Sep 11, 6:50 AM)
Average59 °F85%30.11 "Hg
* Reported Sep 10 12:20 PM — Sep 25 12:50 PM, Askim, Weather by CustomWeather, © 2016

Note: Actual official high and low records may vary slightly from our data, if they occured in-between our weather recording intervals... More about our weather records

Advertising

Askim Weather History for the Previous 24 Hours

Scroll right to see more
 ConditionsComfort  
Time TempWeatherWind HumidityBarometerVisibility
12:50 PM
Sun, Sep 25
63 °FPartly sunny.12 mph83%30.09 "HgN/A
12:20 PM63 °FBroken clouds.13 mph83%30.09 "HgN/A
11:50 AM63 °FBroken clouds.12 mph83%30.09 "HgN/A
11:20 AM63 °FBroken clouds.6 mph83%30.09 "HgN/A
10:50 AM61 °FBroken clouds.8 mph88%30.09 "HgN/A
10:20 AM61 °FBroken clouds.9 mph83%30.09 "HgN/A
9:50 AM61 °FScattered clouds.10 mph88%30.09 "HgN/A
9:20 AM61 °FScattered clouds.12 mph88%30.09 "HgN/A
8:50 AM61 °FPartly sunny.8 mph88%30.09 "HgN/A
8:20 AM61 °FBroken clouds.8 mph88%30.09 "HgN/A
7:50 AM59 °FPartly sunny.7 mph94%30.07 "HgN/A
7:20 AM59 °FPartly sunny.9 mph94%30.07 "HgN/A
6:50 AM59 °FPassing clouds.9 mph94%30.07 "HgN/A
6:20 AM61 °FPassing clouds.9 mph88%30.07 "HgN/A
5:50 AM61 °FMostly cloudy.9 mph88%30.07 "HgN/A
5:20 AM61 °FMostly cloudy.10 mph88%30.07 "HgN/A
4:50 AM61 °FLow clouds.12 mph88%30.07 "HgN/A
4:20 AM61 °FLow clouds.13 mph88%30.07 "HgN/A
3:50 AM61 °FMostly cloudy.12 mph88%30.07 "HgN/A
3:20 AM61 °FOvercast.12 mph88%30.07 "HgN/A
2:50 AM61 °FMostly cloudy.13 mph88%30.07 "HgN/A
2:20 AM61 °FOvercast.12 mph88%30.07 "HgN/A
1:50 AM61 °FOvercast.12 mph88%30.07 "HgN/A
1:20 AM61 °FMostly cloudy.12 mph88%30.07 "HgN/A
12:50 AM61 °FMostly cloudy.12 mph88%30.07 "HgN/A
12:20 AM61 °FPartly cloudy.14 mph88%30.07 "HgN/A
11:50 PM
Sat, Sep 24
61 °FPassing clouds.14 mph88%30.07 "HgN/A
11:20 PM61 °FPassing clouds.15 mph83%30.09 "HgN/A
10:50 PM61 °FPartly cloudy.13 mph88%30.07 "HgN/A
10:20 PM61 °FPassing clouds.15 mph83%30.07 "HgN/A
9:50 PM61 °FPassing clouds.14 mph83%30.07 "HgN/A
9:20 PM61 °FMostly cloudy.14 mph83%30.07 "HgN/A
8:50 PM61 °FPartly cloudy.13 mph83%30.07 "HgN/A
8:20 PM59 °FPassing clouds.13 mph82%30.07 "HgN/A
7:50 PM59 °FPartly cloudy.12 mph82%30.07 "HgN/A
7:20 PM59 °FMostly cloudy.10 mph82%30.07 "HgN/A
6:50 PM59 °FPartly sunny.10 mph77%30.07 "HgN/A
6:20 PM59 °FPartly sunny.10 mph77%30.09 "HgN/A
5:50 PM59 °FPartly sunny.9 mph77%30.09 "HgN/A
5:20 PM59 °FSunny.13 mph77%30.09 "Hg10 mi
4:50 PM61 °FSunny.13 mph72%30.09 "Hg10 mi
4:20 PM59 °FSunny.13 mph77%30.09 "Hg10 mi
3:50 PM61 °FPassing clouds.10 mph68%30.09 "HgN/A
3:20 PM61 °FSunny.9 mph63%30.09 "Hg10 mi
2:50 PM59 °FSunny.7 mph68%30.12 "Hg10 mi
2:20 PM57 °FSunny.10 mph63%30.12 "Hg10 mi
Weather by CustomWeather, © 2016

See weather overviewHow to use our weather pages